Tiempo atmosférico en la estación meteorológica de San Bartolome Tirajana, Cuevas del Pinar, Las Palmas (1220 m.)



Fecha
DESCASC
Temp. máxima en grados centígrados (hora)
DESCASC
Temp. mínima en grados centígrados (hora)
DESCASC
Temp. media en grados centígrados
DESCASC
Racha de viento máxima en m/sg (hora)
DESCASC
Velocidad máxima media en intervalos de 10 minutos(hora)
DESCASC
Precipitaciones diarias en mm
DESCASC
Precipitaciones de 00:00 a 06:00 en mm
DESCASC
Precipitaciones de 06:00 a 12:00 en mm
DESCASC
Precipitaciones de 12:00 a 18:00 en mm
DESCASC
Precipitaciones de 18:00 a 24:00 en mm
DESCASC
15-08-2019 32.5 (16:10) 22.4 (02:50) 27.4 8.06 (15:50) 3.89 (12:00) 0 0 0 0 0
14-08-2019 27.5 (17:30) 19.5 (00:00) 23.5 7.5 (14:20) 3.61 (16:00) 0 0 0 0 0
13-08-2019 28 (16:30) 20.6 (00:00) 24.3 8.33 (19:40) 3.89 (19:50) 0 0 0 0 0
12-08-2019 28.4 (15:00) 21.2 (00:00) 24.8 10.56 (15:00) 4.17 (15:00) 0 0 0 0 0
11-08-2019 29.8 (13:00) 23.1 (00:00) 26.4 8.89 (23:20) 4.17 (04:10) 0 0 0 0 0
10-08-2019 30.1 (10:50) 26.2 (00:00) 28.2 8.33 (23:20) 3.89 (23:20) 0 0 0 0 0
09-08-2019 31.8 (12:10) 24.5 (00:00) 28.1 6.94 (15:30) 3.89 (15:40) 0 0 0 0 0
08-08-2019 32.4 (15:40) 23.8 (00:00) 28.1 6.11 (14:50) 3.06 (06:30) 0 0 0 0 0
07-08-2019 28 (19:20) 19.2 (00:00) 23.6 6.39 (14:20) 3.33 (13:40) 0 0 0 0 0
06-08-2019 26.5 (16:20) 17.8 (00:00) 22.1 7.78 (14:10) 3.61 (16:30) 0 0 0 0 0
05-08-2019 25.9 (16:00) 17.2 (00:00) 21.6 8.33 (16:50) 5 (17:30) 0 0 0 0 0
04-08-2019 25 (16:10) 16.9 (00:00) 20.9 7.22 (12:50) 3.33 (17:10) 0 0 0 0 0
03-08-2019 26.1 (17:00) 17.7 (00:00) 21.9 7.22 (14:00) 3.61 (13:40) 0 0 0 0 0
02-08-2019 25.8 (18:10) 17.3 (00:00) 21.5 6.67 (14:30) 3.89 (14:40) 0 0 0 0 0
01-08-2019 24.6 (17:50) 16.9 (00:00) 20.8 7.5 (15:30) 3.33 (13:50) 0 0 0 0 0
31-07-2019 23.3 (16:50) 16.6 (00:00) 19.9 7.22 (16:00) 3.61 (18:00) 0 0 0 0 0
30-07-2019 24.4 (14:00) 16.5 (00:00) 20.4 7.22 (15:50) 3.61 (16:50) 0 0 0 0 0
29-07-2019 26.7 (16:20) 20.1 (00:00) 23.4 10 (04:10) 4.72 (04:40) 0 0 0 0 0
28-07-2019 27.9 (17:20) 20.7 (00:00) 24.3 8.33 (21:00) 4.17 (21:10) 0 0 0 0 0
27-07-2019 29.7 (10:50) 22.6 (00:00) 26.2 6.67 (16:50) 3.89 (17:20) 0 0 0 0 0
26-07-2019 31.8 (11:40) 24.5 (00:00) 28.1 6.94 (14:50) 3.33 (16:10) 0 0 0 0 0
25-07-2019 32.1 (15:10) 21.1 (00:00) 26.6 8.61 (14:00) 3.89 (15:00) 0 0 0 0 0
24-07-2019 29.6 (16:50) 20.6 (00:00) 25.1 7.78 (12:50) 3.61 (13:20) 0 0 0 0 0
23-07-2019 26.8 (13:10) 20.6 (00:00) 23.7 7.22 (15:30) 3.61 (14:20) 0 0 0 0 0
22-07-2019 28.8 (15:40) 20.1 (00:00) 24.4 7.22 (12:40) 3.61 (13:00) 0 0 0 0 0
21-07-2019 27.6 (17:40) 20.7 (00:00) 24.2 6.94 (14:00) 3.33 (12:20) 0 0 0 0 0
20-07-2019 25.2 (16:30) 16.3 (00:00) 20.8 6.67 (15:40) 3.61 (18:00) 0 0 0 0 0
19-07-2019 25.5 (17:00) 14.9 (00:00) 20.2 8.06 (15:20) 3.89 (15:00) 0 0 0 0 0

Gráficas

Temp. máximas Temp. mínimas Temp. medias Precipitaciones Rachas de viento máximas Velocidades máximas media en intervalos de 10 minutos

Datos horarios

Fecha y hora oficial Temperatura (ºC) Velocidad del viento (km/h) Dirección del viento Racha (km/h) Dirección de racha Precipitación (mm) Presión (hPa) Tendencia (hPa) Humedad (%)
2019-08-17 23:00:00 31.1 6 Sur 26 Este 0 -- -- 13
2019-08-17 22:00:00 31.3 9 Norte 36 Norte 0 -- -- 13
2019-08-17 21:00:00 31.6 10 Noroeste 25 Norte 0 -- -- 13
2019-08-17 20:00:00 33.6 6 Sudoeste 17 Sur 0 -- -- 13
2019-08-17 19:00:00 34.5 9 Oeste 35 Norte 0 -- -- 13
2019-08-17 18:00:00 35 11 Oeste 35 Noroeste 0 -- -- 13
2019-08-17 17:00:00 35.8 11 Sudoeste 45 Norte 0 -- -- 13
2019-08-17 16:00:00 35.2 15 Noroeste 46 Norte 0 -- -- 14
2019-08-17 15:00:00 35.3 17 Noroeste 43 Norte 0 -- -- 13
2019-08-17 14:00:00 35.7 15 Noroeste 50 Norte 0 -- -- 13
2019-08-17 13:00:00 35.1 15 Noroeste 49 Norte 0 -- -- 12
2019-08-17 12:00:00 34.8 11 Oeste 42 Noroeste 0 -- -- 12
2019-08-17 11:00:00 33.9 12 Sudoeste 29 Noroeste 0 -- -- 12
2019-08-17 10:00:00 31.9 7 Sudoeste 37 Sudeste 0 -- -- 13
2019-08-17 09:00:00 30 18 Sur 28 Sur 0 -- -- 14
2019-08-17 08:00:00 29 10 Sur 27 Sudoeste 0 -- -- 15
2019-08-17 07:00:00 28.9 8 Sur 23 Sur 0 -- -- 15
2019-08-17 06:00:00 28.9 4 Sudoeste 19 Sudoeste 0 -- -- 16
2019-08-17 05:00:00 28.6 5 Sudoeste 18 Sudoeste 0 -- -- 16
2019-08-17 04:00:00 29.4 6 Sur 30 Oeste 0 -- -- 17
2019-08-17 03:00:00 31 18 Noroeste 35 Norte 0 -- -- 17
2019-08-17 02:00:00 30.7 6 Sudoeste 36 Norte 0 -- -- 17
2019-08-17 01:00:00 31.4 15 Noroeste 36 Norte 0 -- -- 17
2019-08-17 00:00:00 29.8 5 Sur 10 Sur 0 -- -- 19
2019-08-16 23:00:00 30 5 Sur 8 Sur 0 -- -- 19
2019-08-16 22:00:00 30.5 4 Sudoeste 20 Sur 0 -- -- 19
2019-08-16 21:00:00 31.4 5 Sudoeste 19 Sur 0 -- -- 21
2019-08-16 20:00:00 32.5 8 Oeste 20 Nordeste 0 -- -- 20
2019-08-16 19:00:00 33.8 6 Sudeste 22 Sudoeste 0 -- -- 21
2019-08-16 18:00:00 34.6 11 Sudoeste 26 Norte 0 -- -- 19
2019-08-16 17:00:00 34.1 10 Sur 27 Nordeste 0 -- -- 21
2019-08-16 16:00:00 34.7 10 Nordeste 28 Nordeste 0 -- -- 21
2019-08-16 15:00:00 35.2 12 Nordeste 35 Este 0 -- -- 19
2019-08-16 14:00:00 35.4 13 Nordeste 33 Nordeste 0 -- -- 18
2019-08-16 13:00:00 34.5 13 Este 32 Nordeste 0 -- -- 19
2019-08-16 12:00:00 34.1 11 Este 31 Este 0 -- -- 19
2019-08-16 11:00:00 33.4 8 Oeste 23 Oeste 0 -- -- 18
2019-08-16 10:00:00 31.7 6 Sudoeste 19 Sudoeste 0 -- -- 19
2019-08-16 09:00:00 30.8 7 Sudoeste 21 Norte 0 -- -- 15
2019-08-16 08:00:00 29.1 8 Sur 27 Nordeste 0 -- -- 15
2019-08-16 07:00:00 28.7 8 Este 20 Sur 0 -- -- 15
2019-08-16 06:00:00 29.2 5 Este 13 Este 0 -- -- 16
2019-08-16 05:00:00 28.8 6 Este 12 Nordeste 0 -- -- 16
2019-08-16 04:00:00 28.9 4 Nordeste 9 Este 0 -- -- 15
2019-08-16 03:00:00 28.7 6 Este 9 Nordeste 0 -- -- 15
2019-08-16 02:00:00 29.2 3 Sudeste 12 Nordeste 0 -- -- 15
2019-08-16 01:00:00 29.5 5 Este 11 Sudeste 0 -- -- 14
2019-08-16 00:00:00 29.2 3 Este 9 Este 0 -- -- 14
2019-08-15 23:00:00 30 4 Sudeste 7 Este 0 -- -- 14
2019-08-15 22:00:00 30.1 4 Sudeste 7 Sudeste 0 -- -- 14
2019-08-15 21:00:00 30.6 4 Sudeste 11 Este 0 -- -- 13
2019-08-15 20:00:00 31.2 4 Este 14 Este 0 -- -- 17
2019-08-15 19:00:00 29.7 9 Este 21 Nordeste 0 -- -- 35
2019-08-15 18:00:00 31.1 8 Nordeste 19 Norte 0 -- -- 33
2019-08-15 17:00:00 31.1 12 Nordeste 21 Norte 0 -- -- 31
2019-08-15 16:00:00 31.8 9 Noroeste 29 Norte 0 -- -- 19
2019-08-15 15:00:00 31.5 9 Noroeste 26 Norte 0 -- -- 21
2019-08-15 14:00:00 30.8 8 Noroeste 22 Norte 0 -- -- 23
2019-08-15 13:00:00 29.9 7 Noroeste 20 Nordeste 0 -- -- 25
2019-08-15 12:00:00 28.9 14 Norte 24 Norte 0 -- -- 23
2019-08-15 11:00:00 28 6 Noroeste 14 Norte 0 -- -- 19
2019-08-15 10:00:00 26.4 0 Calma 9 Nordeste 0 -- -- 18
2019-08-15 09:00:00 24.8 6 Nordeste 10 Este 0 -- -- 18
2019-08-15 08:00:00 23.7 6 Este 9 Este 0 -- -- 15
2019-08-15 07:00:00 23.6 0 Calma 7 Sur 0 -- -- 19
2019-08-15 06:00:00 22.9 3 Sudeste 9 Este 0 -- -- 20
2019-08-15 05:00:00 23 2 Sur 9 Sudeste 0 -- -- 21
2019-08-15 04:00:00 22.9 2 Este 5 Sudeste 0 -- -- 21
2019-08-15 03:00:00 22.5 3 Sur 6 Sur 0 -- -- 25
2019-08-15 02:00:00 22.9 3 Este 6 Este 0 -- -- 25
2019-08-15 01:00:00 23 5 Este 12 Nordeste 0 -- -- 24
2019-08-15 00:00:00 23.1 5 Sudeste 8 Sur 0 -- -- 28
2019-08-14 23:00:00 23.2 5 Sur 6 Sur 0 -- -- 34
2019-08-14 22:00:00 23.5 2 Sudeste 5 Este 0 -- -- 21
2019-08-14 21:00:00 23 0 Calma 12 Nordeste 0 -- -- 46
2019-08-14 20:00:00 24.6 7 Nordeste 15 Norte 0 -- -- 35
2019-08-14 19:00:00 25.5 9 Norte 17 Norte 0 -- -- 36
2019-08-14 18:00:00 26.5 6 Noroeste 17 Oeste 0 -- -- 40
2019-08-14 17:00:00 26.7 11 Nordeste 24 Norte 0 -- -- 32
2019-08-14 16:00:00 26.2 13 Norte 27 Norte 0 -- -- 31
2019-08-14 15:00:00 26.4 10 Nordeste 27 Norte 0 -- -- 35
2019-08-14 14:00:00 26 10 Norte 20 Nordeste 0 -- -- 31
2019-08-14 13:00:00 26.1 7 Noroeste 18 Norte 0 -- -- 35
2019-08-14 12:00:00 25.8 5 Oeste 16 Noroeste 0 -- -- 30
2019-08-14 11:00:00 24.2 8 Nordeste 18 Nordeste 0 -- -- 30
2019-08-14 10:00:00 22.7 0 Calma 8 Nordeste 0 -- -- 34
2019-08-14 09:00:00 19.8 0 Calma 7 Norte 0 -- -- 39
2019-08-14 08:00:00 19.7 3 Nordeste 6 Sudoeste 0 -- -- 41
2019-08-14 07:00:00 19.7 0 Calma 3 Nordeste 0 -- -- 41
2019-08-14 06:00:00 19.9 0 Calma 9 Este 0 -- -- 42
2019-08-14 05:00:00 20.9 5 Este 10 Nordeste 0 -- -- 40
2019-08-14 04:00:00 21.7 0 Calma 6 Sur 0 -- -- 42
2019-08-14 03:00:00 21.4 3 Sur 6 Sur 0 -- -- 42
2019-08-14 02:00:00 21 3 Sur 5 Este 0 -- -- 41
2019-08-14 01:00:00 21.3 0 Calma 4 Sudeste 0 -- -- 36
2019-08-14 00:00:00 20.8 0 Calma 5 Norte 0 -- -- 44
2019-08-13 23:00:00 21.1 0 Calma 5 Norte 0 -- -- 41
2019-08-13 22:00:00 22.5 0 Calma 13 Nordeste 0 -- -- 36
2019-08-13 21:00:00 24.1 4 Este 23 Norte 0 -- -- 34
2019-08-13 20:00:00 25.9 12 Noroeste 30 Nordeste 0 -- -- 31
2019-08-13 19:00:00 26.3 7 Nordeste 19 Nordeste 0 -- -- 36
2019-08-13 18:00:00 27.4 8 Noroeste 19 Norte 0 -- -- 37
2019-08-13 17:00:00 27.6 8 Oeste 18 Oeste 0 -- -- 36
2019-08-13 16:00:00 27.8 10 Noroeste 23 Nordeste 0 -- -- 38
2019-08-13 15:00:00 26.6 10 Norte 24 Norte 0 -- -- 41
2019-08-13 14:00:00 27.8 9 Noroeste 17 Noroeste 0 -- -- 39
2019-08-13 13:00:00 27.7 6 Oeste 16 Sudoeste 0 -- -- 35
2019-08-13 12:00:00 27.3 6 Noroeste 15 Norte 0 -- -- 31
2019-08-13 11:00:00 26.3 5 Noroeste 12 Sudoeste 0 -- -- 31
2019-08-13 10:00:00 24.4 4 Noroeste 8 Sudoeste 0 -- -- 33
2019-08-13 09:00:00 21.6 3 Sudoeste 8 Sur 0 -- -- 39
2019-08-13 08:00:00 21.4 3 Este 10 Sudoeste 0 -- -- 39
2019-08-13 07:00:00 21.5 5 Sur 13 Sudoeste 0 -- -- 39
2019-08-13 06:00:00 20.9 2 Nordeste 8 Norte 0 -- -- 40
2019-08-13 05:00:00 21.1 3 Sur 10 Sur 0 -- -- 40
2019-08-13 04:00:00 21.2 4 Sudeste 11 Nordeste 0 -- -- 40
2019-08-13 03:00:00 22 5 Sur 11 Sur 0 -- -- 39
2019-08-13 02:00:00 22.2 4 Sur 25 Este 0 -- -- 39
2019-08-13 01:00:00 22.5 5 Sur 27 Sudeste 0 -- -- 38
2019-08-13 00:00:00 23.4 6 Este 31 Nordeste 0 -- -- 37
2019-08-12 23:00:00 24 11 Nordeste 26 Norte 0 -- -- 35
2019-08-12 22:00:00 23.4 5 Sur 16 Sudoeste 0 -- -- 38
2019-08-12 21:00:00 23.6 6 Noroeste 18 Norte 0 -- -- 47
2019-08-12 20:00:00 25.7 8 Sudoeste 16 Sudoeste 0 -- -- 44
2019-08-12 19:00:00 27.3 8 Sudoeste 21 Sudoeste 0 -- -- 41
2019-08-12 18:00:00 27.5 9 Sudoeste 19 Sudoeste 0 -- -- 41
2019-08-12 17:00:00 27.7 8 Sudoeste 18 Oeste 0 -- -- 38
2019-08-12 16:00:00 27.1 8 Sudoeste 27 Sudoeste 0 -- -- 36
2019-08-12 15:00:00 28.4 15 Oeste 38 Norte 0 -- -- 29
2019-08-12 14:00:00 28 11 Sudoeste 24 Sudoeste 0 -- -- 15
2019-08-12 13:00:00 27.8 6 Sudoeste 14 Sudoeste 0 -- -- 34
2019-08-12 12:00:00 27.3 9 Oeste 19 Oeste 0 -- -- 32
2019-08-12 11:00:00 26.8 7 Noroeste 22 Oeste 0 -- -- 28
2019-08-12 10:00:00 24.9 3 Noroeste 11 Norte 0 -- -- 28
2019-08-12 09:00:00 22.2 2 Noroeste 21 Este 0 -- -- 30
2019-08-12 08:00:00 22.5 7 Este 21 Este 0 -- -- 33
2019-08-12 07:00:00 21.2 4 Sudeste 10 Sur 0 -- -- 31
2019-08-12 06:00:00 22.5 5 Sudeste 21 Sudeste 0 -- -- 27
2019-08-12 05:00:00 22.2 9 Sudeste 16 Este 0 -- -- 23
2019-08-12 04:00:00 22.3 6 Este 18 Sudeste 0 -- -- 26
2019-08-12 03:00:00 21.9 5 Este 12 Sudeste 0 -- -- 23
2019-08-12 02:00:00 22.6 6 Nordeste 11 Este 0 -- -- 25
2019-08-12 01:00:00 21.9 5 Nordeste 11 Nordeste 0 -- -- 39
2019-08-12 00:00:00 23.1 5 Este 32 Nordeste 0 -- -- 28
2019-08-11 23:00:00 23.8 7 Nordeste 15 Norte 0 -- -- 31
2019-08-11 22:00:00 24.4 5 Nordeste 19 Este 0 -- -- 28
2019-08-11 21:00:00 25.6 6 Este 20 Nordeste 0 -- -- 23
2019-08-11 20:00:00 27.1 6 Nordeste 17 Nordeste 0 -- -- 22
2019-08-11 19:00:00 26 8 Nordeste 18 Norte 0 -- -- 55
2019-08-11 18:00:00 26.9 11 Norte 22 Noroeste 0 -- -- 52
2019-08-11 17:00:00 28.2 7 Norte 21 Nordeste 0 -- -- 45
2019-08-11 16:00:00 29.2 10 Noroeste 21 Oeste 0 -- -- 42
2019-08-11 15:00:00 29 8 Sudoeste 20 Sudoeste 0 -- -- 44
2019-08-11 14:00:00 29.1 7 Sudoeste 17 Sudoeste 0 -- -- 39
2019-08-11 13:00:00 29.8 8 Oeste 17 Sudoeste 0 -- -- 32
2019-08-11 12:00:00 27.7 7 Norte 15 Norte 0 -- -- 31
2019-08-11 11:00:00 27.2 8 Nordeste 14 Nordeste 0 -- -- 30
2019-08-11 10:00:00 26.3 0 Calma 14 Norte 0 -- -- 22
2019-08-11 09:00:00 24.9 5 Nordeste 18 Nordeste 0 -- -- 21
2019-08-11 08:00:00 26.3 8 Norte 22 Nordeste 0 -- -- 16
2019-08-11 07:00:00 26 9 Nordeste 22 Nordeste 0 -- -- 16
2019-08-11 06:00:00 25.3 7 Este 20 Nordeste 0 -- -- 18
2019-08-11 05:00:00 27.8 8 Nordeste 26 Nordeste 0 -- -- 14
2019-08-11 04:00:00 28.4 15 Nordeste 23 Norte 0 -- -- 15
2019-08-11 03:00:00 26 6 Sur 22 Nordeste 0 -- -- 17
2019-08-11 02:00:00 26 8 Este 29 Nordeste 0 -- -- 20
2019-08-11 01:00:00 27.9 7 Norte 25 Nordeste 0 -- -- 15
2019-08-11 00:00:00 27.6 9 Norte 30 Nordeste 0 -- -- 18
2019-08-10 23:00:00 26.9 10 Nordeste 24 Norte 0 -- -- 18
2019-08-10 22:00:00 27.3 4 Oeste 13 Sudeste 0 -- -- 22
2019-08-10 21:00:00 27.9 3 Oeste 23 Nordeste 0 -- -- 20
2019-08-10 20:00:00 28.9 8 Este 21 Nordeste 0 -- -- 21
2019-08-10 19:00:00 28.3 9 Nordeste 18 Nordeste 0 -- -- 49
2019-08-10 18:00:00 28.1 9 Nordeste 17 Nordeste 0 -- -- 48
2019-08-10 17:00:00 27.8 9 Nordeste 20 Nordeste 0 -- -- 49
2019-08-10 16:00:00 27.9 9 Norte 23 Nordeste 0 -- -- 49
2019-08-10 15:00:00 28.9 6 Nordeste 21 Nordeste 0 -- -- 44
2019-08-10 14:00:00 29.1 8 Norte 24 Nordeste 0 -- -- 41
2019-08-10 13:00:00 29 9 Nordeste 21 Nordeste 0 -- -- 33
2019-08-10 12:00:00 28.3 11 Nordeste 22 Nordeste 0 -- -- 35
2019-08-10 11:00:00 29.3 10 Nordeste 21 Nordeste 0 -- -- 33
2019-08-10 10:00:00 29.2 5 Nordeste 21 Noroeste 0 -- -- 31
2019-08-10 09:00:00 27.6 6 Noroeste 26 Norte 0 -- -- 27
2019-08-10 08:00:00 27.4 8 Este 22 Este 0 -- -- 28
2019-08-10 07:00:00 27.7 11 Nordeste 24 Nordeste 0 -- -- 33
2019-08-10 06:00:00 27.1 7 Sur 27 Nordeste 0 -- -- 25
2019-08-10 05:00:00 27.7 13 Noroeste 28 Noroeste 0 -- -- 24
2019-08-10 04:00:00 28 10 Nordeste 25 Nordeste 0 -- -- 31
2019-08-10 03:00:00 26.9 5 Este 15 Nordeste 0 -- -- 33
2019-08-10 02:00:00 26.7 3 Sudeste 8 Este 0 -- -- 33
2019-08-10 01:00:00 26.5 2 Sudeste 5 Sudeste 0 -- -- 36
2019-08-10 00:00:00 26.9 0 Calma 10 Noroeste 0 -- -- 36
2019-08-09 23:00:00 26.5 5 Este 13 Este 0 -- -- 33
2019-08-09 22:00:00 27.3 4 Nordeste 14 Nordeste 0 -- -- 33
2019-08-09 21:00:00 27.6 4 Sur 10 Sudeste 0 -- -- 33
2019-08-09 20:00:00 28.9 4 Sudoeste 17 Nordeste 0 -- -- 34
2019-08-09 19:00:00 28.3 11 Nordeste 21 Nordeste 0 -- -- 45
2019-08-09 18:00:00 28.6 12 Nordeste 19 Nordeste 0 -- -- 46
2019-08-09 17:00:00 28.9 12 Norte 21 Nordeste 0 -- -- 45
2019-08-09 16:00:00 28.9 8 Nordeste 25 Nordeste 0 -- -- 44
2019-08-09 15:00:00 29.1 9 Nordeste 24 Norte 0 -- -- 41
2019-08-09 14:00:00 29.4 12 Norte 24 Nordeste 0 -- -- 43
2019-08-09 13:00:00 29.3 13 Nordeste 22 Oeste 0 -- -- 40
2019-08-09 12:00:00 31.6 9 Oeste 19 Noroeste 0 -- -- 30
2019-08-09 11:00:00 30.2 8 Sudoeste 22 Noroeste 0 -- -- 28
2019-08-09 10:00:00 29.2 10 Oeste 22 Oeste 0 -- -- 32
2019-08-09 09:00:00 27.4 9 Sudoeste 19 Sudoeste 0 -- -- 28
2019-08-09 08:00:00 26 2 Sudoeste 14 Oeste 0 -- -- 27
2019-08-09 07:00:00 26.4 8 Sudoeste 15 Sur 0 -- -- 29
2019-08-09 06:00:00 25.7 6 Sudoeste 13 Sudoeste 0 -- -- 21
2019-08-09 05:00:00 25.5 7 Sur 12 Sudoeste 0 -- -- 21
2019-08-09 04:00:00 25 6 Sudoeste 12 Sudoeste 0 -- -- 14
2019-08-09 03:00:00 24.9 5 Sur 9 Sudoeste 0 -- -- 12
2019-08-09 02:00:00 24.7 5 Sur 9 Sudoeste 0 -- -- 11
2019-08-09 01:00:00 24.9 4 Oeste 8 Sudoeste 0 -- -- 15
2019-08-09 00:00:00 26.3 5 Sudoeste 13 Sudoeste 0 -- -- 23
2019-08-08 23:00:00 25.4 3 Sudoeste 7 Sur 0 -- -- 22
2019-08-08 22:00:00 27.1 4 Sur 9 Sudoeste 0 -- -- 25
2019-08-08 21:00:00 26.7 4 Sudoeste 9 Oeste 0 -- -- 28
2019-08-08 20:00:00 27.9 5 Oeste 13 Oeste 0 -- -- 31
2019-08-08 19:00:00 31.4 6 Oeste 14 Oeste 0 -- -- 22
2019-08-08 18:00:00 31.8 8 Oeste 16 Oeste 0 -- -- 23
2019-08-08 17:00:00 32.1 9 Oeste 17 Noroeste 0 -- -- 29
2019-08-08 16:00:00 32.1 10 Oeste 21 Noroeste 0 -- -- 25
2019-08-08 15:00:00 32.1 9 Oeste 22 Oeste 0 -- -- 23
2019-08-08 14:00:00 31.2 8 Oeste 18 Oeste 0 -- -- 19
2019-08-08 13:00:00 31.7 9 Oeste 19 Sudoeste 0 -- -- 16
2019-08-08 12:00:00 30.5 5 Oeste 13 Noroeste 0 -- -- 19
2019-08-08 11:00:00 29.8 6 Oeste 15 Sudoeste 0 -- -- 14
2019-08-08 10:00:00 28.7 5 Oeste 8 Oeste 0 -- -- 10
2019-08-08 09:00:00 25.7 3 Sudoeste 6 Sur 0 -- -- 10
2019-08-08 08:00:00 25.4 3 Sudeste 8 Sudeste 0 -- -- 9
2019-08-08 07:00:00 24.3 0 Calma 18 Nordeste 0 -- -- 15
2019-08-08 06:00:00 26.7 5 Sur 10 Sudoeste 0 -- -- 12
2019-08-08 05:00:00 26 6 Sur 10 Sudoeste 0 -- -- 10
2019-08-08 04:00:00 26.3 5 Sur 9 Sur 0 -- -- 10
2019-08-08 03:00:00 26.3 4 Sudoeste 11 Sur 0 -- -- 11
2019-08-08 02:00:00 26.1 4 Sur 9 Sur 0 -- -- 10
2019-08-08 01:00:00 26 2 Sur 6 Sur 0 -- -- 9
2019-08-08 00:00:00 25.7 2 Este 8 Sur 0 -- -- 12
2019-08-07 23:00:00 25.1 2 Sudoeste 14 Nordeste 0 -- -- 18
2019-08-07 22:00:00 25.3 0 Calma 12 Nordeste 0 -- -- 52
2019-08-07 21:00:00 26.8 5 Este 10 Nordeste 0 -- -- 17
2019-08-07 20:00:00 27.3 3 Noroeste 13 Oeste 0 -- -- 51
2019-08-07 19:00:00 27.2 7 Nordeste 14 Nordeste 0 -- -- 49
2019-08-07 18:00:00 27.4 7 Nordeste 17 Nordeste 0 -- -- 48
2019-08-07 17:00:00 26.5 8 Nordeste 18 Norte 0 -- -- 51
2019-08-07 16:00:00 26.9 10 Nordeste 21 Norte 0 -- -- 45
2019-08-07 15:00:00 25.9 8 Nordeste 23 Nordeste 0 -- -- 44
2019-08-07 14:00:00 26.7 7 Nordeste 21 Nordeste 0 -- -- 45
2019-08-07 13:00:00 25.7 8 Nordeste 21 Norte 0 -- -- 35
2019-08-07 12:00:00 25.2 10 Nordeste 18 Nordeste 0 -- -- 35
2019-08-07 11:00:00 26.1 4 Noroeste 12 Nordeste 0 -- -- 23
2019-08-07 10:00:00 23.8 0 Calma 5 Sur 0 -- -- 19
2019-08-07 09:00:00 21 5 Sur 8 Sur 0 -- -- 23
2019-08-07 08:00:00 20.7 4 Sur 6 Sur 0 -- -- 21
2019-08-07 07:00:00 20.5 5 Sur 9 Sur 0 -- -- 26
2019-08-07 06:00:00 19.6 5 Sur 8 Sur 0 -- -- 32
2019-08-07 05:00:00 19.7 0 Calma 9 Este 0 -- -- 40
2019-08-07 04:00:00 19.6 7 Nordeste 13 Nordeste 0 -- -- 44
2019-08-07 03:00:00 19.3 0 Calma 7 Sur 0 -- -- 35
2019-08-07 02:00:00 19.2 5 Sur 8 Sudoeste 0 -- -- 45
2019-08-07 01:00:00 19.4 0 Calma 8 Sur 0 -- -- 62
2019-08-07 00:00:00 19.6 3 Sudeste 10 Este 0 -- -- 60
2019-08-06 23:00:00 20.3 5 Nordeste 15 Nordeste 0 -- -- 65
2019-08-06 22:00:00 20.9 8 Nordeste 13 Nordeste 0 -- -- 63
2019-08-06 21:00:00 22.1 2 Oeste 14 Nordeste 0 -- -- 58
2019-08-06 20:00:00 24.3 4 Sudoeste 14 Sudoeste 0 -- -- 54
2019-08-06 19:00:00 23.7 10 Nordeste 20 Norte 0 -- -- 51
2019-08-06 18:00:00 25.4 9 Norte 22 Norte 0 -- -- 45
2019-08-06 17:00:00 25.4 8 Noroeste 26 Norte 0 -- -- 50
2019-08-06 16:00:00 26.1 6 Noroeste 25 Norte 0 -- -- 46
2019-08-06 15:00:00 25.3 12 Nordeste 28 Norte 0 -- -- 42
2019-08-06 14:00:00 25 10 Norte 22 Nordeste 0 -- -- 40
2019-08-06 13:00:00 24.1 11 Norte 23 Norte 0 -- -- 44
2019-08-06 12:00:00 24.7 6 Oeste 13 Noroeste 0 -- -- 31
2019-08-06 11:00:00 23.8 6 Oeste 12 Oeste 0 -- -- 27
2019-08-06 10:00:00 21.9 0 Calma 5 Noroeste 0 -- -- 24
2019-08-06 09:00:00 19 3 Sur 6 Sudeste 0 -- -- 24
2019-08-06 08:00:00 18.5 0 Calma 7 Este 0 -- -- 23
2019-08-06 07:00:00 18.4 0 Calma 5 Nordeste 0 -- -- 27
2019-08-06 06:00:00 18 4 Este 8 Este 0 -- -- 30
2019-08-06 05:00:00 18 4 Sudeste 8 Sudeste 0 -- -- 31
2019-08-06 04:00:00 18.1 0 Calma 8 Nordeste 0 -- -- 38
2019-08-06 03:00:00 18 0 Calma 6 Sudeste 0 -- -- 41
2019-08-06 02:00:00 17.8 2 Sudeste 5 Sudeste 0 -- -- 47
2019-08-06 01:00:00 18.4 4 Sur 9 Sur 0 -- -- 45
2019-08-06 00:00:00 18.5 6 Sur 11 Sur 0 -- -- 48
2019-08-05 23:00:00 18.6 5 Sur 8 Sur 0 -- -- 59
2019-08-05 22:00:00 19.6 0 Calma 4 Norte 0 -- -- 60
2019-08-05 21:00:00 21.4 4 Oeste 10 Noroeste 0 -- -- 57
2019-08-05 20:00:00 24 6 Oeste 19 Noroeste 0 -- -- 48
2019-08-05 19:00:00 25.1 7 Oeste 23 Sudeste 0 -- -- 48
2019-08-05 18:00:00 24.6 12 Nordeste 28 Norte 0 -- -- 21
2019-08-05 17:00:00 25 13 Noroeste 30 Norte 0 -- -- 21
2019-08-05 16:00:00 25.9 9 Sudoeste 21 Oeste 0 -- -- 37
2019-08-05 15:00:00 24.7 8 Sudoeste 23 Sudoeste 0 -- -- 48
2019-08-05 14:00:00 23.6 6 Nordeste 21 Nordeste 0 -- -- 39
2019-08-05 13:00:00 23.4 9 Oeste 21 Sudoeste 0 -- -- 46
2019-08-05 12:00:00 23.8 7 Norte 15 Norte 0 -- -- 34
2019-08-05 11:00:00 23.6 7 Noroeste 12 Oeste 0 -- -- 25
2019-08-05 10:00:00 21.7 3 Oeste 5 Sudoeste 0 -- -- 25
2019-08-05 09:00:00 18.7 0 Calma 10 Nordeste 0 -- -- 26
2019-08-05 08:00:00 19.1 7 Este 13 Nordeste 0 -- -- 24
2019-08-05 07:00:00 18.3 6 Este 12 Este 0 -- -- 31
2019-08-05 06:00:00 17.8 4 Sur 8 Sur 0 -- -- 31
2019-08-05 05:00:00 17.6 0 Calma 12 Este 0 -- -- 33
2019-08-05 04:00:00 18.1 5 Este 8 Este 0 -- -- 27
2019-08-05 03:00:00 17.9 3 Sudeste 8 Sudeste 0 -- -- 29
2019-08-05 02:00:00 17.3 4 Sur 7 Sur 0 -- -- 47
2019-08-05 01:00:00 17.7 0 Calma 9 Este 0 -- -- 64
2019-08-05 00:00:00 18.3 8 Este 12 Nordeste 0 -- -- 56
2019-08-04 23:00:00 18.2 3 Sur 6 Sur 0 -- -- 61
2019-08-04 22:00:00 18.1 3 Sudoeste 12 Nordeste 0 -- -- 71
2019-08-04 21:00:00 18.9 7 Este 16 Este 0 -- -- 71
2019-08-04 20:00:00 21.5 9 Nordeste 13 Oeste 0 -- -- 62
2019-08-04 19:00:00 23.6 7 Oeste 15 Noroeste 0 -- -- 52
2019-08-04 18:00:00 23 11 Nordeste 21 Este 0 -- -- 56
2019-08-04 17:00:00 24 6 Norte 25 Norte 0 -- -- 52
2019-08-04 16:00:00 24.8 7 Noroeste 21 Oeste 0 -- -- 48
2019-08-04 15:00:00 24.4 10 Noroeste 19 Oeste 0 -- -- 47
2019-08-04 14:00:00 23.4 7 Oeste 19 Noroeste 0 -- -- 50
2019-08-04 13:00:00 22.5 10 Sudoeste 26 Norte 0 -- -- 50
2019-08-04 12:00:00 22 12 Norte 20 Norte 0 -- -- 45
2019-08-04 11:00:00 22 9 Norte 14 Nordeste 0 -- -- 42
2019-08-04 10:00:00 20.5 5 Noroeste 9 Oeste 0 -- -- 37
2019-08-04 09:00:00 17.5 4 Sur 7 Sur 0 -- -- 51
2019-08-04 08:00:00 17 5 Sur 7 Sur 0 -- -- 51
2019-08-04 07:00:00 17.1 4 Sur 6 Sudeste 0 -- -- 51
2019-08-04 06:00:00 17.1 4 Sur 6 Sur 0 -- -- 56
2019-08-04 05:00:00 17.1 0 Calma 4 Sudeste 0 -- -- 61
2019-08-04 04:00:00 17.3 2 Sur 9 Nordeste 0 -- -- 62
2019-08-04 03:00:00 18.1 8 Nordeste 12 Nordeste 0 -- -- 66
2019-08-04 02:00:00 18.3 5 Este 9 Este 0 -- -- 64
2019-08-04 01:00:00 18.4 2 Este 4 Nordeste 0 -- -- 49
2019-08-04 00:00:00 18.9 2 Sur 11 Nordeste 0 -- -- 49
2019-08-03 23:00:00 19.5 6 Este 13 Este 0 -- -- 61
2019-08-03 22:00:00 20.8 5 Este 10 Este 0 -- -- 57
2019-08-03 21:00:00 22.1 0 Calma 9 Sudoeste 0 -- -- 39
2019-08-03 20:00:00 24.1 5 Oeste 16 Oeste 0 -- -- 44
2019-08-03 19:00:00 22.8 10 Nordeste 18 Nordeste 0 -- -- 58
2019-08-03 18:00:00 24.2 8 Norte 20 Norte 0 -- -- 55
2019-08-03 17:00:00 26.1 9 Noroeste 21 Noroeste 0 -- -- 47
2019-08-03 16:00:00 25.9 8 Oeste 21 Noroeste 0 -- -- 48
2019-08-03 15:00:00 24 6 Nordeste 25 Norte 0 -- -- 56
2019-08-03 14:00:00 23.7 13 Norte 26 Nordeste 0 -- -- 55
2019-08-03 13:00:00 24.3 9 Oeste 17 Sudoeste 0 -- -- 47
2019-08-03 12:00:00 25.1 5 Noroeste 12 Oeste 0 -- -- 35
2019-08-03 11:00:00 23.9 5 Oeste 12 Noroeste 0 -- -- 33
2019-08-03 10:00:00 22.2 4 Oeste 9 Oeste 0 -- -- 33
2019-08-03 09:00:00 19.3 3 Sudeste 12 Nordeste 0 -- -- 41
2019-08-03 08:00:00 19.3 8 Este 12 Nordeste 0 -- -- 34
2019-08-03 07:00:00 18.6 2 Nordeste 5 Sudeste 0 -- -- 31
2019-08-03 06:00:00 18.2 2 Nordeste 7 Sur 0 -- -- 42
2019-08-03 05:00:00 18.2 4 Sur 9 Este 0 -- -- 40
2019-08-03 04:00:00 18.2 6 Este 11 Nordeste 0 -- -- 55
2019-08-03 03:00:00 18.4 2 Sudeste 9 Sudeste 0 -- -- 38
2019-08-03 02:00:00 18.1 0 Calma 5 Este 0 -- -- 57
2019-08-03 01:00:00 19.1 5 Este 13 Nordeste 0 -- -- 59
2019-08-03 00:00:00 19.8 6 Este 11 Nordeste 0 -- -- 63
2019-08-02 23:00:00 19.1 0 Calma 4 Oeste 0 -- -- 57
2019-08-02 22:00:00 20.2 0 Calma 5 Oeste 0 -- -- 61
2019-08-02 21:00:00 21.3 2 Norte 15 Nordeste 0 -- -- 63
2019-08-02 20:00:00 23.1 8 Nordeste 14 Nordeste 0 -- -- 58
2019-08-02 19:00:00 25 7 Noroeste 15 Noroeste 0 -- -- 53
2019-08-02 18:00:00 25.5 8 Oeste 19 Nordeste 0 -- -- 52
2019-08-02 17:00:00 24.3 10 Nordeste 22 Norte 0 -- -- 53
2019-08-02 16:00:00 24.8 9 Nordeste 20 Este 0 -- -- 51
2019-08-02 15:00:00 24.4 10 Norte 24 Nordeste 0 -- -- 52
2019-08-02 14:00:00 23.9 8 Noroeste 20 Noroeste 0 -- -- 52
2019-08-02 13:00:00 24.1 8 Noroeste 17 Noroeste 0 -- -- 47
2019-08-02 12:00:00 22.2 9 Nordeste 17 Nordeste 0 -- -- 50
2019-08-02 11:00:00 22.9 2 Este 14 Nordeste 0 -- -- 37
2019-08-02 10:00:00 21.9 2 Nordeste 9 Norte 0 -- -- 31
2019-08-02 09:00:00 18.8 3 Sur 7 Sur 0 -- -- 28
2019-08-02 08:00:00 17.6 5 Sur 7 Sur 0 -- -- 35
2019-08-02 07:00:00 17.3 4 Sur 7 Sur 0 -- -- 40
2019-08-02 06:00:00 17.7 2 Nordeste 10 Este 0 -- -- 37
2019-08-02 05:00:00 18.6 5 Este 8 Este 0 -- -- 37
2019-08-02 04:00:00 18.6 3 Sudeste 6 Sur 0 -- -- 32
2019-08-02 03:00:00 18.7 2 Este 6 Este 0 -- -- 47
2019-08-02 02:00:00 19.8 3 Este 4 Este 0 -- -- 30
2019-08-02 01:00:00 19.8 0 Calma 9 Nordeste 0 -- -- 34
2019-08-02 00:00:00 20.2 7 Nordeste 13 Nordeste 0 -- -- 36
2019-08-01 23:00:00 20.2 3 Nordeste 5 Sudeste 0 -- -- 32
2019-08-01 22:00:00 20.1 0 Calma 4 Sudeste 0 -- -- 48
2019-08-01 21:00:00 19.8 0 Calma 17 Nordeste 0 -- -- 66
2019-08-01 20:00:00 20.9 11 Nordeste 16 Nordeste 0 -- -- 64
2019-08-01 19:00:00 24.1 7 Noroeste 15 Oeste 0 -- -- 52
2019-08-01 18:00:00 24.1 8 Noroeste 17 Noroeste 0 -- -- 53
2019-08-01 17:00:00 23.6 8 Noroeste 21 Norte 0 -- -- 57
2019-08-01 16:00:00 23 9 Este 27 Norte 0 -- -- 56
2019-08-01 15:00:00 22.8 8 Nordeste 24 Nordeste 0 -- -- 57
2019-08-01 14:00:00 22.8 10 Norte 21 Noroeste 0 -- -- 55
2019-08-01 13:00:00 22.4 9 Noroeste 17 Noroeste 0 -- -- 51
2019-08-01 12:00:00 21.9 7 Noroeste 12 Noroeste 0 -- -- 49
2019-08-01 11:00:00 21 6 Nordeste 14 Nordeste 0 -- -- 50
2019-08-01 10:00:00 20.7 3 Nordeste 8 Nordeste 0 -- -- 30
2019-08-01 09:00:00 17.5 0 Calma 5 Sur 0 -- -- 27
2019-08-01 08:00:00 17 2 Sudeste 4 Sudeste 0 -- -- 23
2019-08-01 07:00:00 17 0 Calma 7 Sur 0 -- -- 28
2019-08-01 06:00:00 17 3 Sur 5 Sur 0 -- -- 28
2019-08-01 05:00:00 16.9 0 Calma 4 Sudeste 0 -- -- 30
2019-08-01 04:00:00 17 2 Sudeste 9 Nordeste 0 -- -- 29
2019-08-01 03:00:00 17.7 6 Este 10 Este 0 -- -- 30
2019-08-01 02:00:00 18.2 4 Este 8 Este 0 -- -- 25
2019-08-01 01:00:00 16.9 0 Calma 5 Sur 0 -- -- 38
2019-08-01 00:00:00 17.5 3 Sur 6 Sur 0 -- -- 36
2019-07-31 23:00:00 18.2 0 Calma 5 Sudeste 0 -- -- 40
2019-07-31 22:00:00 17.1 4 Nordeste 9 Oeste 0 -- -- 46
2019-07-31 21:00:00 18.6 4 Oeste 12 Noroeste 0 -- -- 63
2019-07-31 20:00:00 20.7 6 Oeste 17 Nordeste 0 -- -- 53
2019-07-31 19:00:00 20.2 10 Norte 24 Norte 0 -- -- 62
2019-07-31 18:00:00 21 13 Norte 24 Nordeste 0 -- -- 60
2019-07-31 17:00:00 22.8 7 Noroeste 17 Noroeste 0 -- -- 52
2019-07-31 16:00:00 22.9 8 Oeste 26 Noroeste 0 -- -- 53
2019-07-31 15:00:00 21.1 11 Norte 24 Norte 0 -- -- 61
2019-07-31 14:00:00 21.2 8 Nordeste 24 Norte 0 -- -- 62
2019-07-31 13:00:00 20 10 Norte 24 Norte 0 -- -- 67
2019-07-31 12:00:00 19.6 12 Nordeste 19 Norte 0 -- -- 66
2019-07-31 11:00:00 21.2 6 Noroeste 10 Noroeste 0 -- -- 41
2019-07-31 10:00:00 19.6 3 Oeste 8 Oeste 0 -- -- 34
2019-07-31 09:00:00 17.1 3 Sur 5 Sudeste 0 -- -- 39
2019-07-31 08:00:00 17.4 3 Sur 6 Nordeste 0 -- -- 33
2019-07-31 07:00:00 17.6 0 Calma 9 Nordeste 0 -- -- 35
2019-07-31 06:00:00 17.4 2 Sudoeste 8 Sur 0 -- -- 40
2019-07-31 05:00:00 17.5 5 Sur 8 Sudoeste 0 -- -- 42
2019-07-31 04:00:00 18.2 0 Calma 6 Sudeste 0 -- -- 44
2019-07-31 03:00:00 18.7 4 Este 13 Este 0 -- -- 41
2019-07-31 02:00:00 18.9 5 Este 10 Este 0 -- -- 47
2019-07-31 01:00:00 19 2 Nordeste 11 Sur 0 -- -- 40
2019-07-31 00:00:00 19.3 4 Sudeste 17 Nordeste 0 -- -- 21
2019-07-30 23:00:00 19.6 4 Este 13 Nordeste 0 -- -- 32
2019-07-30 22:00:00 17.4 4 Este 13 Nordeste 0 -- -- 57
2019-07-30 21:00:00 17.1 9 Nordeste 21 Nordeste 0 -- -- 82
2019-07-30 20:00:00 19.4 10 Nordeste 14 Nordeste 0 -- -- 73
2019-07-30 19:00:00 22.3 7 Oeste 21 Oeste 0 -- -- 50
2019-07-30 18:00:00 23.3 9 Oeste 21 Noroeste 0 -- -- 49
2019-07-30 17:00:00 22.4 9 Nordeste 26 Norte 0 -- -- 61
2019-07-30 16:00:00 22.6 12 Norte 26 Noroeste 0 -- -- 58
2019-07-30 15:00:00 23.8 8 Oeste 22 Oeste 0 -- -- 50
2019-07-30 14:00:00 24.4 9 Noroeste 24 Oeste 0 -- -- 47
2019-07-30 13:00:00 22.4 8 Sudoeste 18 Sudoeste 0 -- -- 49
2019-07-30 12:00:00 22.2 9 Sudoeste 18 Sudoeste 0 -- -- 48
2019-07-30 11:00:00 22.3 9 Sudoeste 15 Sudoeste 0 -- -- 34
2019-07-30 10:00:00 21.5 6 Sudoeste 13 Sudoeste 0 -- -- 32
2019-07-30 09:00:00 18.7 4 Sudoeste 10 Sudoeste 0 -- -- 39
2019-07-30 08:00:00 17.6 3 Sur 8 Sur 0 -- -- 43
2019-07-30 07:00:00 17 4 Oeste 9 Sur 0 -- -- 45
2019-07-30 06:00:00 17.6 4 Sudoeste 9 Sudeste 0 -- -- 44
2019-07-30 05:00:00 18.8 3 Norte 9 Este 0 -- -- 39
2019-07-30 04:00:00 19.1 6 Sur 11 Sur 0 -- -- 36
2019-07-30 03:00:00 18.8 5 Oeste 12 Sudeste 0 -- -- 39
2019-07-30 02:00:00 18.9 2 Este 8 Sur 0 -- -- 40
2019-07-30 01:00:00 19.2 2 Sudeste 8 Norte 0 -- -- 39
2019-07-30 00:00:00 20.2 2 Sudeste 12 Sur 0 -- -- 34
2019-07-29 23:00:00 21.6 4 Sudoeste 19 Sudeste 0 -- -- 30
2019-07-29 22:00:00 22.3 12 Nordeste 33 Nordeste 0 -- -- 24
2019-07-29 21:00:00 21.6 4 Nordeste 14 Nordeste 0 -- -- 31
2019-07-29 20:00:00 23.9 10 Nordeste 21 Nordeste 0 -- -- 34
2019-07-29 19:00:00 25.8 7 Nordeste 23 Nordeste 0 -- -- 17
2019-07-29 18:00:00 26 9 Noroeste 21 Nordeste 0 -- -- 16
2019-07-29 17:00:00 25.3 8 Norte 23 Nordeste 0 -- -- 42
2019-07-29 16:00:00 25.9 10 Sudoeste 17 Oeste 0 -- -- 46
2019-07-29 15:00:00 25.9 7 Oeste 22 Noroeste 0 -- -- 41
2019-07-29 14:00:00 24 11 Norte 24 Norte 0 -- -- 50
2019-07-29 13:00:00 24.1 10 Norte 23 Nordeste 0 -- -- 48
2019-07-29 12:00:00 25.4 6 Oeste 14 Norte 0 -- -- 40
2019-07-29 11:00:00 23.8 6 Noroeste 12 Noroeste 0 -- -- 42
2019-07-29 10:00:00 24.7 3 Sudoeste 10 Nordeste 0 -- -- 34
2019-07-29 09:00:00 21.2 5 Este 12 Nordeste 0 -- -- 44
2019-07-29 08:00:00 20.8 4 Sudeste 8 Nordeste 0 -- -- 35
2019-07-29 07:00:00 20.3 4 Este 9 Nordeste 0 -- -- 36
2019-07-29 06:00:00 21.4 3 Sudeste 23 Norte 0 -- -- 32
2019-07-29 05:00:00 23.5 17 Nordeste 36 Nordeste 0 -- -- 27
2019-07-29 04:00:00 23.6 14 Nordeste 33 Nordeste 0 -- -- 30
2019-07-29 03:00:00 23.6 8 Nordeste 22 Nordeste 0 -- -- 25
2019-07-29 02:00:00 23.8 13 Norte 30 Nordeste 0 -- -- 27
2019-07-29 01:00:00 23.3 7 Noroeste 29 Norte 0 -- -- 30
2019-07-29 00:00:00 23.6 7 Este 21 Este 0 -- -- 29
2019-07-28 23:00:00 23.9 8 Nordeste 24 Norte 0 -- -- 31
2019-07-28 22:00:00 24.1 7 Noroeste 28 Nordeste 0 -- -- 31
2019-07-28 21:00:00 24.1 14 Nordeste 30 Norte 0 -- -- 30
2019-07-28 20:00:00 25 8 Nordeste 17 Norte 0 -- -- 45
2019-07-28 19:00:00 25.9 8 Nordeste 15 Nordeste 0 -- -- 56
2019-07-28 18:00:00 27.5 7 Noroeste 19 Oeste 0 -- -- 44
2019-07-28 17:00:00 27 11 Noroeste 23 Nordeste 0 -- -- 49
2019-07-28 16:00:00 26.9 11 Norte 26 Nordeste 0 -- -- 51
2019-07-28 15:00:00 26.8 12 Norte 22 Norte 0 -- -- 47
2019-07-28 14:00:00 26.7 9 Norte 18 Noroeste 0 -- -- 46
2019-07-28 13:00:00 26.9 6 Noroeste 18 Norte 0 -- -- 37
2019-07-28 12:00:00 26.6 6 Norte 14 Norte 0 -- -- 37
2019-07-28 11:00:00 26.2 6 Noroeste 15 Oeste 0 -- -- 33
2019-07-28 10:00:00 24.4 3 Norte 5 Norte 0 -- -- 30
2019-07-28 09:00:00 21.4 0 Calma 7 Sudoeste 0 -- -- 35
2019-07-28 08:00:00 21.2 0 Calma 5 Norte 0 -- -- 36
2019-07-28 07:00:00 21.3 0 Calma 6 Este 0 -- -- 37
2019-07-28 06:00:00 21.1 0 Calma 6 Sudoeste 0 -- -- 36
2019-07-28 05:00:00 21.2 4 Sur 7 Sur 0 -- -- 29
2019-07-28 04:00:00 21.4 2 Sudeste 10 Este 0 -- -- 28
2019-07-28 03:00:00 21.3 6 Nordeste 9 Nordeste 0 -- -- 44
2019-07-28 02:00:00 20.9 2 Sur 14 Este 0 -- -- 52
2019-07-28 01:00:00 22.3 10 Este 17 Nordeste 0 -- -- 54
2019-07-28 00:00:00 23.3 10 Este 18 Nordeste 0 -- -- 57
2019-07-27 23:00:00 22.6 0 Calma 4 Sudeste 0 -- -- 50
2019-07-27 22:00:00 23.3 0 Calma 6 Este 0 -- -- 57
2019-07-26 11:00:00 31.3 9 Nordeste 14 Nordeste 0 -- -- 18
2019-07-26 10:00:00 30.9 6 Norte 12 Nordeste 0 -- -- 12
2019-07-26 09:00:00 28.2 8 Este 13 Nordeste 0 -- -- 12
2019-07-26 08:00:00 26.5 2 Sudeste 16 Este 0 -- -- 15
2019-07-26 07:00:00 26.7 10 Este 15 Nordeste 0 -- -- 19
2019-07-26 06:00:00 26 9 Este 15 Este 0 -- -- 22
2019-07-26 05:00:00 26.2 4 Este 15 Este 0 -- -- 18
2019-07-26 04:00:00 25.1 5 Este 11 Nordeste 0 -- -- 27
2019-07-26 03:00:00 24.8 10 Este 17 Nordeste 0 -- -- 34
2019-07-26 02:00:00 25.4 4 Nordeste 12 Nordeste 0 -- -- 30
2019-07-26 01:00:00 25.4 4 Este 16 Nordeste 0 -- -- 36
2019-07-26 00:00:00 27.6 4 Sudeste 12 Nordeste 0 -- -- 20
2019-07-25 23:00:00 27.8 3 Sudeste 10 Oeste 0 -- -- 21
2019-07-25 22:00:00 27 6 Este 15 Este 0 -- -- 24
2019-07-25 21:00:00 28.5 5 Sudoeste 9 Oeste 0 -- -- 28
2019-07-25 20:00:00 30.9 5 Oeste 11 Oeste 0 -- -- 31
2019-07-25 19:00:00 32 7 Oeste 17 Noroeste 0 -- -- 28
2019-07-25 18:00:00 31.3 9 Norte 22 Nordeste 0 -- -- 26
2019-07-25 17:00:00 31.4 9 Norte 23 Nordeste 0 -- -- 24
2019-07-25 16:00:00 32 8 Norte 22 Norte 0 -- -- 23
2019-07-25 15:00:00 31.3 14 Norte 28 Nordeste 0 -- -- 13
2019-07-25 14:00:00 29.3 12 Norte 31 Norte 0 -- -- 20
2019-07-25 13:00:00 29 10 Norte 24 Nordeste 0 -- -- 21
2019-07-25 12:00:00 29.3 5 Nordeste 19 Nordeste 0 -- -- 10
2019-07-25 11:00:00 26.6 9 Nordeste 16 Nordeste 0 -- -- 27
2019-07-25 10:00:00 26.4 4 Sudoeste 8 Norte 0 -- -- 16
2019-07-25 09:00:00 24 4 Nordeste 10 Nordeste 0 -- -- 14
2019-07-25 08:00:00 22 8 Nordeste 19 Este 0 -- -- 34
2019-07-25 07:00:00 24.6 3 Sudeste 11 Nordeste 0 -- -- 10
2019-07-25 06:00:00 23.6 5 Este 8 Este 0 -- -- 11
2019-07-25 05:00:00 23.4 0 Calma 6 Sur 0 -- -- 18
2019-07-25 04:00:00 21.9 0 Calma 13 Este 0 -- -- 31
2019-07-25 03:00:00 23.4 9 Este 14 Este 0 -- -- 38
2019-07-25 02:00:00 23.4 5 Este 8 Este 0 -- -- 26
2019-07-25 01:00:00 22.8 2 Nordeste 7 Nordeste 0 -- -- 40
2019-07-25 00:00:00 23.9 0 Calma 10 Nordeste 0 -- -- 29
2019-07-24 23:00:00 24.2 3 Norte 11 Este 0 -- -- 35
2019-07-24 22:00:00 24.1 4 Este 10 Este 0 -- -- 44
2019-07-24 21:00:00 25.4 0 Calma 12 Oeste 0 -- -- 44
2019-07-24 20:00:00 28.2 6 Oeste 13 Noroeste 0 -- -- 40
2019-07-24 19:00:00 29.3 6 Oeste 15 Oeste 0 -- -- 39
2019-07-24 18:00:00 28.7 9 Noroeste 22 Nordeste 0 -- -- 39
2019-07-24 17:00:00 29.2 11 Sudoeste 26 Norte 0 -- -- 37
2019-07-24 16:00:00 29.1 8 Norte 19 Noroeste 0 -- -- 36
2019-07-24 15:00:00 27.8 10 Nordeste 20 Nordeste 0 -- -- 29
2019-07-24 14:00:00 27.7 9 Este 28 Norte 0 -- -- 24
2019-07-24 13:00:00 26.2 8 Nordeste 28 Nordeste 0 -- -- 30
2019-07-24 12:00:00 25.5 8 Norte 19 Norte 0 -- -- 33
2019-07-24 11:00:00 24.7 10 Nordeste 21 Norte 0 -- -- 28
2019-07-24 10:00:00 24.6 0 Calma 6 Noroeste 0 -- -- 18
2019-07-24 09:00:00 21.5 2 Este 5 Sur 0 -- -- 17
2019-07-24 08:00:00 21.1 4 Sur 9 Este 0 -- -- 19
2019-07-24 07:00:00 20.6 4 Este 6 Nordeste 0 -- -- 23
2019-07-24 06:00:00 20.7 2 Sur 7 Sur 0 -- -- 24
2019-07-24 05:00:00 21.3 0 Calma 12 Este 0 -- -- 22
2019-07-24 04:00:00 21.3 0 Calma 6 Sudeste 0 -- -- 17
2019-07-24 03:00:00 21 0 Calma 8 Nordeste 0 -- -- 30
2019-07-24 02:00:00 21.6 4 Sudeste 8 Sudeste 0 -- -- 21
2019-07-24 01:00:00 22 8 Este 17 Este 0 -- -- 18
2019-07-24 00:00:00 20.9 6 Este 10 Nordeste 0 -- -- 50
2019-07-23 23:00:00 21.1 3 Nordeste 11 Este 0 -- -- 58
2019-07-23 22:00:00 22.3 2 Nordeste 4 Nordeste 0 -- -- 57
2019-07-23 21:00:00 23.9 3 Oeste 13 Noroeste 0 -- -- 56
2019-07-23 20:00:00 26.4 5 Oeste 17 Norte 0 -- -- 50
2019-07-23 19:00:00 25.8 10 Nordeste 21 Nordeste 0 -- -- 38
2019-07-23 18:00:00 26 10 Nordeste 21 Norte 0 -- -- 39
2019-07-23 17:00:00 25.9 10 Nordeste 23 Nordeste 0 -- -- 43
2019-07-23 16:00:00 25.4 10 Nordeste 26 Norte 0 -- -- 46
2019-07-23 15:00:00 26.4 8 Nordeste 26 Norte 0 -- -- 40
2019-07-23 14:00:00 26.2 6 Noroeste 25 Nordeste 0 -- -- 44
2019-07-23 13:00:00 26 9 Noroeste 20 Norte 0 -- -- 42
2019-07-23 12:00:00 26.1 7 Nordeste 15 Nordeste 0 -- -- 32
2019-07-23 11:00:00 26.2 6 Noroeste 12 Oeste 0 -- -- 24
2019-07-23 10:00:00 24.4 3 Norte 8 Norte 0 -- -- 33
2019-07-23 09:00:00 22 4 Nordeste 11 Nordeste 0 -- -- 25
2019-07-23 08:00:00 21.4 5 Este 9 Este 0 -- -- 22
2019-07-23 07:00:00 21.7 4 Este 5 Nordeste 0 -- -- 16
2019-07-23 06:00:00 21.8 4 Sudeste 9 Este 0 -- -- 18
2019-07-23 05:00:00 22.2 6 Este 10 Nordeste 0 -- -- 19
2019-07-23 04:00:00 22.2 0 Calma 8 Sur 0 -- -- 18
2019-07-23 03:00:00 22.6 5 Sur 8 Sur 0 -- -- 21
2019-07-23 02:00:00 22.7 2 Este 6 Este 0 -- -- 15
2019-07-23 01:00:00 21.8 2 Este 13 Nordeste 0 -- -- 22
2019-07-23 00:00:00 21.4 0 Calma 4 Sudeste 0 -- -- 49
2019-07-22 23:00:00 22.1 0 Calma 5 Sudeste 0 -- -- 41
2019-07-22 22:00:00 22.6 0 Calma 4 Norte 0 -- -- 56
2019-07-22 21:00:00 24.1 3 Oeste 10 Nordeste 0 -- -- 56
2019-07-22 20:00:00 24.6 10 Nordeste 15 Noroeste 0 -- -- 55
2019-07-22 19:00:00 26.2 7 Norte 20 Norte 0 -- -- 49
2019-07-22 18:00:00 26.5 10 Nordeste 21 Nordeste 0 -- -- 50
2019-07-22 17:00:00 26.9 9 Nordeste 23 Nordeste 0 -- -- 45
2019-07-22 16:00:00 27.7 9 Norte 19 Noroeste 0 -- -- 43
2019-07-22 15:00:00 28.4 10 Noroeste 22 Noroeste 0 -- -- 40
2019-07-22 14:00:00 27.4 8 Norte 23 Nordeste 0 -- -- 40
2019-07-22 13:00:00 26.4 13 Norte 26 Norte 0 -- -- 38
2019-07-22 12:00:00 27.4 7 Noroeste 13 Noroeste 0 -- -- 31
2019-07-22 11:00:00 26.5 6 Oeste 11 Oeste 0 -- -- 30
2019-07-22 10:00:00 24.8 2 Oeste 11 Nordeste 0 -- -- 32
2019-07-22 09:00:00 22.3 3 Nordeste 8 Nordeste 0 -- -- 34
2019-07-22 08:00:00 22.1 0 Calma 6 Nordeste 0 -- -- 20
2019-07-22 07:00:00 21.3 0 Calma 4 Este 0 -- -- 26
2019-07-22 06:00:00 21.2 0 Calma 4 Sur 0 -- -- 41
2019-07-22 05:00:00 21.2 0 Calma 5 Sur 0 -- -- 27
2019-07-22 04:00:00 21.1 0 Calma 6 Este 0 -- -- 39
2019-07-22 03:00:00 21 4 Este 6 Nordeste 0 -- -- 39
2019-07-22 02:00:00 20.9 4 Sudeste 6 Sur 0 -- -- 46
2019-07-22 01:00:00 20.1 0 Calma 11 Este 0 -- -- 64
2019-07-22 00:00:00 20.8 6 Nordeste 10 Nordeste 0 -- -- 70
2019-07-21 23:00:00 21.5 4 Nordeste 9 Nordeste 0 -- -- 67
2019-07-21 22:00:00 22.4 0 Calma 4 Sur 0 -- -- 62
2019-07-21 21:00:00 23.7 3 Oeste 9 Oeste 0 -- -- 58
2019-07-21 20:00:00 24.5 6 Nordeste 15 Nordeste 0 -- -- 59
2019-07-21 19:00:00 24.9 10 Nordeste 19 Norte 0 -- -- 57
2019-07-21 18:00:00 26.7 10 Norte 19 Noroeste 0 -- -- 52
2019-07-21 17:00:00 27.2 8 Noroeste 16 Norte 0 -- -- 52
2019-07-21 16:00:00 26 6 Nordeste 21 Nordeste 0 -- -- 52
2019-07-21 15:00:00 25.3 9 Norte 21 Norte 0 -- -- 54
2019-07-21 14:00:00 26.5 8 Oeste 25 Sudeste 0 -- -- 46
2019-07-21 13:00:00 25.8 10 Norte 19 Norte 0 -- -- 43
2019-07-21 12:00:00 26.5 7 Norte 13 Norte 0 -- -- 39
2019-07-21 11:00:00 24.9 6 Nordeste 18 Nordeste 0 -- -- 27
2019-07-21 10:00:00 24.3 0 Calma 9 Nordeste 0 -- -- 20
2019-07-21 09:00:00 21.9 0 Calma 9 Nordeste 0 -- -- 18
2019-07-21 08:00:00 21.4 0 Calma 7 Sur 0 -- -- 16
2019-07-21 07:00:00 21.1 4 Sur 6 Sur 0 -- -- 23
2019-07-21 06:00:00 21.1 4 Sudeste 6 Sudeste 0 -- -- 23
2019-07-21 05:00:00 21.3 4 Sur 6 Sur 0 -- -- 21
2019-07-21 04:00:00 21 2 Sur 6 Sur 0 -- -- 24
2019-07-21 03:00:00 21.6 0 Calma 9 Nordeste 0 -- -- 31
2019-07-21 02:00:00 21.2 0 Calma 10 Este 0 -- -- 39
2019-07-21 01:00:00 21.3 0 Calma 6 Este 0 -- -- 42
2019-07-21 00:00:00 21.3 4 Este 5 Nordeste 0 -- -- 46
2019-07-20 23:00:00 20.8 2 Sudeste 6 Este 0 -- -- 50
2019-07-20 22:00:00 20.1 3 Sudeste 15 Nordeste 0 -- -- 62
2019-07-20 21:00:00 23 2 Oeste 13 Nordeste 0 -- -- 58
2019-07-20 20:00:00 23.9 5 Norte 17 Nordeste 0 -- -- 56
2019-07-20 19:00:00 23.2 10 Nordeste 18 Nordeste 0 -- -- 57
2019-07-20 18:00:00 23.3 13 Nordeste 22 Nordeste 0 -- -- 57
2019-07-20 17:00:00 25 8 Nordeste 22 Norte 0 -- -- 53
2019-07-20 16:00:00 24.7 9 Norte 24 Norte 0 -- -- 55
2019-07-20 15:00:00 24 8 Noroeste 17 Noroeste 0 -- -- 57
2019-07-20 14:00:00 23.5 6 Oeste 21 Nordeste 0 -- -- 59
2019-07-20 13:00:00 22 9 Norte 21 Norte 0 -- -- 60
2019-07-20 12:00:00 20.8 12 Nordeste 23 Nordeste 0 -- -- 62
2019-07-20 11:00:00 20.6 7 Norte 14 Nordeste 0 -- -- 58
2019-07-20 10:00:00 19.1 4 Noroeste 8 Noroeste 0 -- -- 44
2019-07-20 09:00:00 18.5 0 Calma 5 Oeste 0 -- -- 28
2019-07-20 08:00:00 17.8 4 Sudeste 15 Este 0 -- -- 22
2019-07-20 07:00:00 18.5 2 Este 8 Nordeste 0 -- -- 25
2019-07-20 06:00:00 17.8 5 Este 9 Este 0 -- -- 30
2019-07-20 05:00:00 17.1 2 Norte 4 Oeste 0 -- -- 42
2019-07-20 04:00:00 17.4 0 Calma 6 Nordeste 0 -- -- 40
2019-07-20 03:00:00 18.8 0 Calma 6 Sur 0 -- -- 32
2019-07-20 02:00:00 17.5 2 Este 5 Sudeste 0 -- -- 33
2019-07-20 01:00:00 17.4 0 Calma 10 Noroeste 0 -- -- 45
2019-07-20 00:00:00 16.3 4 Sudeste 11 Sudeste 0 -- -- 54
2019-07-19 23:00:00 15 0 Calma 10 Sudeste 0 -- -- 90
2019-07-19 22:00:00 16.4 3 Oeste 17 Nordeste 0 -- -- 84
2019-07-19 21:00:00 17.3 10 Nordeste 18 Nordeste 0 -- -- 73
2019-07-19 20:00:00 20.6 8 Este 17 Este 0 -- -- 64
2019-07-19 19:00:00 22.2 9 Norte 20 Noroeste 0 -- -- 56
2019-07-19 18:00:00 23.8 8 Oeste 19 Oeste 0 -- -- 49
2019-07-19 17:00:00 25.5 8 Oeste 19 Norte 0 -- -- 44
2019-07-19 16:00:00 22.8 13 Nordeste 29 Noroeste 0 -- -- 54
2019-07-19 15:00:00 23.5 14 Nordeste 25 Nordeste 0 -- -- 52
2019-07-19 14:00:00 24.6 6 Noroeste 17 Noroeste 0 -- -- 37
2019-07-19 13:00:00 23.3 9 Oeste 18 Nordeste 0 -- -- 42
2019-07-19 12:00:00 21 11 Nordeste 19 Nordeste 0 -- -- 54
2019-07-19 11:00:00 20.5 13 Nordeste 22 Nordeste 0 -- -- 49
2019-07-19 10:00:00 22.8 7 Nordeste 12 Nordeste 0 -- -- 27
2019-07-19 09:00:00 18.1 0 Calma 6 Nordeste 0 -- -- 23
2019-07-19 08:00:00 17.2 3 Sudoeste 8 Sudeste 0 -- -- 25
2019-07-19 07:00:00 18.2 0 Calma 9 Nordeste 0 -- -- 22
2019-07-19 06:00:00 18.9 4 Sudeste 7 Sur 0 -- -- 17
2019-07-19 05:00:00 19.6 4 Este 10 Sudeste 0 -- -- 17
2019-07-19 04:00:00 18.1 4 Sudeste 16 Nordeste 0 -- -- 20
2019-07-19 03:00:00 19.1 5 Este 10 Nordeste 0 -- -- 24
2019-07-19 02:00:00 19.2 2 Este 10 Sudeste 0 -- -- 20
2019-07-19 01:00:00 19.4 4 Sudeste 10 Sudoeste 0 -- -- 25
2019-07-19 00:00:00 20.5 4 Sudeste 12 Nordeste 0 -- -- 21